Terminal Aerodrome Forecast
Issued by NWS

Home | Current Version | Previous Version | Text Only | Print | Product List | Glossary Off
Versions: 1 2 3 4 5 6 7 8 9 10 11 12 13 14 15 16 17 18 19 20 21 22 23 24 25 26 27

000
FTUS42 KMHX 241600 AAC
TAFPGV
TAF AMD
KPGV 241627Z 2416/2512 19010G15KT 3SM RA BR OVC010
     FM241900 18015G20KT 4SM BR VCSH OVC007
     FM250600 21010G15KT P6SM OVC015
     FM250900 25010KT P6SM OVC050
      AMD LTD TO CLD VIS AND WIND=

USA.gov is the U.S. government's official web portal to all federal, state and local government web resources and services.